Year,Month,Day,Hour,Minute,Value (Times are PST for windgust in km/hr)
2019,02,10,00,00,17.70
2019,02,10,00,01,20.90
2019,02,10,00,02,14.50
2019,02,10,00,03,16.10
2019,02,10,00,04,24.20
2019,02,10,00,05,24.20
2019,02,10,00,06,17.70
2019,02,10,00,07,35.40
2019,02,10,00,08,22.50
2019,02,10,00,09,16.10
2019,02,10,00,10,14.50
2019,02,10,00,11,24.20
2019,02,10,00,12,22.50
2019,02,10,00,13,17.70
2019,02,10,00,14,16.10
2019,02,10,00,15,19.30
2019,02,10,00,16,22.50
2019,02,10,00,17,32.20
2019,02,10,00,18,40.20
2019,02,10,00,19,11.30
2019,02,10,00,20,25.70
2019,02,10,00,21,29.00
2019,02,10,00,22,20.90
2019,02,10,00,23,22.50
2019,02,10,00,24,25.70
2019,02,10,00,25,11.30
2019,02,10,00,26,16.10
2019,02,10,00,27,16.10
2019,02,10,00,28,14.50
2019,02,10,00,29,11.30
2019,02,10,00,30,22.50
2019,02,10,00,31,17.70
2019,02,10,00,32,24.20
2019,02,10,00,33,17.70
2019,02,10,00,34,27.40
2019,02,10,00,35,22.50
2019,02,10,00,36,22.50
2019,02,10,00,37,24.20
2019,02,10,00,38,17.70
2019,02,10,00,39,16.10
2019,02,10,00,40,22.50
2019,02,10,00,41,17.70
2019,02,10,00,42,19.30
2019,02,10,00,43,16.10
2019,02,10,00,44,17.70
2019,02,10,00,45,16.10
2019,02,10,00,46,19.30
2019,02,10,00,47,19.30
2019,02,10,00,48,22.50
2019,02,10,00,49,9.60
2019,02,10,00,50,20.90
2019,02,10,00,51,30.60
2019,02,10,00,52,25.70
2019,02,10,00,53,25.70
2019,02,10,00,54,22.50
2019,02,10,00,55,20.90
2019,02,10,00,56,30.60
2019,02,10,00,57,20.90
2019,02,10,00,58,33.80
2019,02,10,00,59,17.70
2019,02,10,01,00,24.20
2019,02,10,01,01,24.20
2019,02,10,01,02,22.50
2019,02,10,01,03,17.70
2019,02,10,01,04,29.00
2019,02,10,01,05,29.00
2019,02,10,01,06,29.00
2019,02,10,01,07,16.10
2019,02,10,01,08,20.90
2019,02,10,01,09,24.20
2019,02,10,01,10,25.70
2019,02,10,01,11,30.60
2019,02,10,01,12,22.50
2019,02,10,01,13,25.70
2019,02,10,01,14,22.50
2019,02,10,01,15,27.40
2019,02,10,01,16,24.20
2019,02,10,01,17,19.30
2019,02,10,01,18,19.30
2019,02,10,01,19,25.70
2019,02,10,01,20,24.20
2019,02,10,01,21,14.50
2019,02,10,01,22,37.00
2019,02,10,01,23,32.20
2019,02,10,01,24,32.20
2019,02,10,01,25,29.00
2019,02,10,01,26,27.40
2019,02,10,01,27,19.30
2019,02,10,01,28,22.50
2019,02,10,01,29,35.40
2019,02,10,01,30,32.20
2019,02,10,01,31,20.90
2019,02,10,01,32,25.70
2019,02,10,01,33,25.70
2019,02,10,01,34,19.30
2019,02,10,01,35,32.20
2019,02,10,01,36,29.00
2019,02,10,01,37,27.40
2019,02,10,01,38,24.20
2019,02,10,01,39,27.40
2019,02,10,01,40,20.90
2019,02,10,01,41,33.80
2019,02,10,01,42,20.90
2019,02,10,01,43,29.00
2019,02,10,01,44,30.60
2019,02,10,01,45,22.50
2019,02,10,01,46,22.50
2019,02,10,01,47,25.70
2019,02,10,01,48,22.50
2019,02,10,01,49,30.60
2019,02,10,01,50,22.50
2019,02,10,01,51,35.40
2019,02,10,01,52,27.40
2019,02,10,01,53,32.20
2019,02,10,01,54,29.00
2019,02,10,01,55,38.60
2019,02,10,01,56,33.80
2019,02,10,01,57,41.80
2019,02,10,01,58,27.40
2019,02,10,01,59,19.30
2019,02,10,02,00,20.90
2019,02,10,02,01,19.30
2019,02,10,02,02,20.90
2019,02,10,02,03,30.60
2019,02,10,02,04,22.50
2019,02,10,02,05,20.90
2019,02,10,02,06,38.60
2019,02,10,02,07,32.20
2019,02,10,02,08,32.20
2019,02,10,02,09,20.90
2019,02,10,02,10,19.30
2019,02,10,02,11,19.30
2019,02,10,02,12,30.60
2019,02,10,02,13,25.70
2019,02,10,02,14,25.70
2019,02,10,02,15,27.40
2019,02,10,02,16,25.70
2019,02,10,02,17,25.70
2019,02,10,02,18,22.50
2019,02,10,02,19,27.40
2019,02,10,02,20,27.40
2019,02,10,02,21,24.20
2019,02,10,02,22,27.40
2019,02,10,02,23,29.00
2019,02,10,02,24,16.10
2019,02,10,02,25,24.20
2019,02,10,02,26,17.70
2019,02,10,02,27,14.50
2019,02,10,02,28,16.10
2019,02,10,02,29,27.40
2019,02,10,02,30,27.40
2019,02,10,02,31,29.00
2019,02,10,02,32,35.40
2019,02,10,02,33,22.50
2019,02,10,02,34,27.40
2019,02,10,02,35,22.50
2019,02,10,02,36,30.60
2019,02,10,02,37,16.10
2019,02,10,02,38,25.70
2019,02,10,02,39,11.30
2019,02,10,02,40,14.50
2019,02,10,02,41,9.60
2019,02,10,02,42,16.10
2019,02,10,02,43,16.10
2019,02,10,02,44,11.30
2019,02,10,02,45,14.50
2019,02,10,02,46,19.30
2019,02,10,02,47,16.10
2019,02,10,02,48,16.10
2019,02,10,02,49,17.70
2019,02,10,02,50,17.70
2019,02,10,02,51,20.90
2019,02,10,02,52,25.70
2019,02,10,02,53,17.70
2019,02,10,02,54,24.20
2019,02,10,02,55,16.10
2019,02,10,02,56,14.50
2019,02,10,02,57,9.60
2019,02,10,02,58,14.50
2019,02,10,02,59,14.50
2019,02,10,03,00,16.10
2019,02,10,03,01,22.50
2019,02,10,03,02,17.70
2019,02,10,03,03,11.30
2019,02,10,03,04,22.50
2019,02,10,03,05,16.10
2019,02,10,03,06,16.10
2019,02,10,03,07,19.30
2019,02,10,03,08,6.40
2019,02,10,03,09,11.30
2019,02,10,03,10,25.70
2019,02,10,03,11,12.90
2019,02,10,03,12,17.70
2019,02,10,03,13,17.70
2019,02,10,03,14,16.10
2019,02,10,03,15,11.30
2019,02,10,03,16,9.60
2019,02,10,03,17,17.70
2019,02,10,03,18,11.30
2019,02,10,03,19,19.30
2019,02,10,03,20,16.10
2019,02,10,03,21,19.30
2019,02,10,03,22,14.50
2019,02,10,03,23,14.50
2019,02,10,03,24,14.50
2019,02,10,03,25,9.60
2019,02,10,03,26,6.40
2019,02,10,03,27,9.60
2019,02,10,03,28,9.60
2019,02,10,03,29,14.50
2019,02,10,03,30,8.10
2019,02,10,03,31,9.60
2019,02,10,03,32,9.60
2019,02,10,03,33,8.10
2019,02,10,03,34,9.60
2019,02,10,03,35,8.10
2019,02,10,03,36,4.80
2019,02,10,03,37,6.40
2019,02,10,03,38,3.20
2019,02,10,03,39,8.10
2019,02,10,03,40,8.10
2019,02,10,03,41,16.10
2019,02,10,03,42,14.50
2019,02,10,03,43,8.10
2019,02,10,03,44,11.30
2019,02,10,03,45,11.30
2019,02,10,03,46,12.90
2019,02,10,03,47,4.80
2019,02,10,03,48,8.10
2019,02,10,03,49,14.50
2019,02,10,03,50,14.50
2019,02,10,03,51,9.60
2019,02,10,03,52,11.30
2019,02,10,03,53,16.10
2019,02,10,03,54,14.50
2019,02,10,03,55,16.10
2019,02,10,03,56,19.30
2019,02,10,03,57,14.50
2019,02,10,03,58,11.30
2019,02,10,03,59,9.60
2019,02,10,04,00,9.60
2019,02,10,04,01,6.40
2019,02,10,04,02,14.50
2019,02,10,04,03,20.90
2019,02,10,04,04,9.60
2019,02,10,04,05,8.10
2019,02,10,04,06,9.60
2019,02,10,04,07,9.60
2019,02,10,04,08,16.10
2019,02,10,04,09,4.80
2019,02,10,04,10,11.30
2019,02,10,04,11,9.60
2019,02,10,04,12,14.50
2019,02,10,04,13,9.60
2019,02,10,04,14,8.10
2019,02,10,04,15,9.60
2019,02,10,04,16,8.10
2019,02,10,04,17,11.30
2019,02,10,04,18,12.90
2019,02,10,04,19,17.70
2019,02,10,04,20,8.10
2019,02,10,04,21,1.60
2019,02,10,04,22,4.80
2019,02,10,04,23,4.80
2019,02,10,04,24,6.40
2019,02,10,04,25,9.60
2019,02,10,04,26,16.10
2019,02,10,04,27,9.60
2019,02,10,04,28,8.10
2019,02,10,04,29,8.10
2019,02,10,04,30,9.60
2019,02,10,04,31,11.30
2019,02,10,04,32,8.10
2019,02,10,04,33,11.30
2019,02,10,04,34,8.10
2019,02,10,04,35,8.10
2019,02,10,04,36,9.60
2019,02,10,04,37,9.60
2019,02,10,04,38,16.10
2019,02,10,04,39,16.10
2019,02,10,04,40,6.40
2019,02,10,04,41,6.40
2019,02,10,04,42,11.30
2019,02,10,04,43,6.40
2019,02,10,04,44,9.60
2019,02,10,04,45,6.40
2019,02,10,04,46,3.20
2019,02,10,04,47,3.20
2019,02,10,04,48,4.80
2019,02,10,04,49,14.50
2019,02,10,04,50,8.10
2019,02,10,04,51,8.10
2019,02,10,04,52,4.80
2019,02,10,04,53,4.80
2019,02,10,04,54,9.60
2019,02,10,04,55,4.80
2019,02,10,04,56,8.10
2019,02,10,04,57,8.10
2019,02,10,04,58,11.30
2019,02,10,04,59,14.50
2019,02,10,05,00,9.60
2019,02,10,05,01,8.10
2019,02,10,05,02,6.40
2019,02,10,05,03,4.80
2019,02,10,05,04,9.60
2019,02,10,05,05,3.20
2019,02,10,05,06,3.20
2019,02,10,05,07,3.20
2019,02,10,05,08,6.40
2019,02,10,05,09,6.40
2019,02,10,05,10,8.10
2019,02,10,05,11,6.40
2019,02,10,05,12,9.60
2019,02,10,05,13,4.80
2019,02,10,05,14,4.80
2019,02,10,05,15,9.60
2019,02,10,05,16,6.40
2019,02,10,05,17,6.40
2019,02,10,05,18,6.40
2019,02,10,05,19,8.10
2019,02,10,05,20,4.80
2019,02,10,05,21,9.60
2019,02,10,05,22,9.60
2019,02,10,05,23,8.10
2019,02,10,05,24,4.80
2019,02,10,05,25,4.80
2019,02,10,05,26,4.80
2019,02,10,05,27,4.80
2019,02,10,05,28,6.40
2019,02,10,05,29,8.10
2019,02,10,05,30,8.10
2019,02,10,05,31,4.80
2019,02,10,05,32,6.40
2019,02,10,05,33,4.80
2019,02,10,05,34,4.80
2019,02,10,05,35,3.20
2019,02,10,05,36,6.40
2019,02,10,05,37,6.40
2019,02,10,05,38,6.40
2019,02,10,05,39,4.80
2019,02,10,05,40,6.40
2019,02,10,05,41,6.40
2019,02,10,05,42,4.80
2019,02,10,05,43,4.80
2019,02,10,05,44,4.80
2019,02,10,05,45,8.10
2019,02,10,05,46,6.40
2019,02,10,05,47,4.80
2019,02,10,05,48,8.10
2019,02,10,05,49,8.10
2019,02,10,05,50,6.40
2019,02,10,05,51,4.80
2019,02,10,05,52,4.80
2019,02,10,05,53,4.80
2019,02,10,05,54,4.80
2019,02,10,05,55,4.80
2019,02,10,05,56,6.40
2019,02,10,05,57,4.80
2019,02,10,05,58,4.80
2019,02,10,05,59,4.80
2019,02,10,06,00,3.20
2019,02,10,06,01,6.40
2019,02,10,06,02,4.80
2019,02,10,06,03,8.10
2019,02,10,06,04,4.80
2019,02,10,06,05,6.40
2019,02,10,06,06,4.80
2019,02,10,06,07,3.20
2019,02,10,06,08,3.20
2019,02,10,06,09,3.20
2019,02,10,06,10,1.60
2019,02,10,06,11,3.20
2019,02,10,06,12,3.20
2019,02,10,06,13,3.20
2019,02,10,06,14,4.80
2019,02,10,06,15,4.80
2019,02,10,06,16,6.40
2019,02,10,06,17,6.40
2019,02,10,06,18,6.40
2019,02,10,06,19,6.40
2019,02,10,06,20,6.40
2019,02,10,06,21,6.40
2019,02,10,06,22,6.40
2019,02,10,06,23,6.40
2019,02,10,06,24,4.80
2019,02,10,06,25,4.80
2019,02,10,06,26,6.40
2019,02,10,06,27,4.80
2019,02,10,06,28,4.80
2019,02,10,06,29,4.80
2019,02,10,06,30,6.40
2019,02,10,06,31,4.80
2019,02,10,06,32,4.80
2019,02,10,06,33,6.40
2019,02,10,06,34,4.80
2019,02,10,06,35,4.80
2019,02,10,06,36,4.80
2019,02,10,06,37,4.80
2019,02,10,06,38,4.80
2019,02,10,06,39,4.80
2019,02,10,06,40,4.80
2019,02,10,06,41,6.40
2019,02,10,06,42,4.80
2019,02,10,06,43,6.40
2019,02,10,06,44,8.10
2019,02,10,06,45,8.10
2019,02,10,06,46,8.10
2019,02,10,06,47,6.40
2019,02,10,06,48,6.40
2019,02,10,06,49,4.80
2019,02,10,06,50,6.40
2019,02,10,06,51,4.80
2019,02,10,06,52,6.40
2019,02,10,06,53,6.40
2019,02,10,06,54,4.80
2019,02,10,06,55,4.80
2019,02,10,06,56,4.80
2019,02,10,06,57,4.80
2019,02,10,06,58,4.80
2019,02,10,06,59,4.80
2019,02,10,07,00,4.80
2019,02,10,07,01,4.80
2019,02,10,07,02,4.80
2019,02,10,07,03,4.80
2019,02,10,07,04,4.80
2019,02,10,07,05,4.80
2019,02,10,07,06,4.80
2019,02,10,07,07,4.80
2019,02,10,07,08,4.80
2019,02,10,07,09,4.80
2019,02,10,07,10,3.20
2019,02,10,07,11,3.20
2019,02,10,07,12,3.20
2019,02,10,07,13,3.20
2019,02,10,07,14,3.20
2019,02,10,07,15,4.80
2019,02,10,07,16,4.80
2019,02,10,07,17,6.40
2019,02,10,07,18,4.80
2019,02,10,07,19,6.40
2019,02,10,07,20,4.80
2019,02,10,07,21,3.20
2019,02,10,07,22,4.80
2019,02,10,07,23,4.80
2019,02,10,07,24,3.20
2019,02,10,07,25,4.80
2019,02,10,07,26,4.80
2019,02,10,07,27,4.80
2019,02,10,07,28,3.20
2019,02,10,07,29,3.20
2019,02,10,07,30,3.20
2019,02,10,07,31,3.20
2019,02,10,07,32,3.20
2019,02,10,07,33,1.60
2019,02,10,07,34,3.20
2019,02,10,07,35,1.60
2019,02,10,07,36,1.60
2019,02,10,07,37,3.20
2019,02,10,07,38,1.60
2019,02,10,07,39,1.60
2019,02,10,07,40,3.20
2019,02,10,07,41,1.60
2019,02,10,07,42,1.60
2019,02,10,07,43,1.60
2019,02,10,07,44,1.60
2019,02,10,07,45,1.60
2019,02,10,07,46,3.20
2019,02,10,07,47,3.20
2019,02,10,07,48,1.60
2019,02,10,07,49,3.20
2019,02,10,07,50,1.60
2019,02,10,07,54,1.60
2019,02,10,07,55,1.60
2019,02,10,07,56,1.60
2019,02,10,07,57,3.20
2019,02,10,07,58,1.60
2019,02,10,07,59,3.20
2019,02,10,08,00,3.20
2019,02,10,08,01,3.20
2019,02,10,08,02,3.20
2019,02,10,08,03,4.80
2019,02,10,08,04,3.20
2019,02,10,08,05,3.20
2019,02,10,08,06,3.20
2019,02,10,08,07,3.20
2019,02,10,08,08,4.80
2019,02,10,08,09,4.80
2019,02,10,08,10,4.80
2019,02,10,08,11,4.80
2019,02,10,08,12,4.80
2019,02,10,08,13,3.20
2019,02,10,08,14,4.80
2019,02,10,08,15,6.40
2019,02,10,08,16,9.60
2019,02,10,08,17,3.20
2019,02,10,08,18,3.20
2019,02,10,08,19,3.20
2019,02,10,08,20,1.60
2019,02,10,08,24,1.60
2019,02,10,08,25,1.60
2019,02,10,08,26,3.20
2019,02,10,08,27,3.20
2019,02,10,08,28,3.20
2019,02,10,08,29,1.60
2019,02,10,08,30,1.60
2019,02,10,08,31,1.60
2019,02,10,08,32,3.20
2019,02,10,08,33,1.60
2019,02,10,08,34,3.20
2019,02,10,08,35,3.20
2019,02,10,08,36,3.20
2019,02,10,08,37,3.20
2019,02,10,08,38,4.80
2019,02,10,08,39,4.80
2019,02,10,08,40,4.80
2019,02,10,08,41,1.60
2019,02,10,08,42,3.20
2019,02,10,08,43,3.20
2019,02,10,08,44,1.60
2019,02,10,08,45,1.60
2019,02,10,08,46,3.20
2019,02,10,08,47,3.20
2019,02,10,08,48,3.20
2019,02,10,08,49,3.20
2019,02,10,08,50,3.20
2019,02,10,08,51,4.80
2019,02,10,08,52,3.20
2019,02,10,08,53,6.40
2019,02,10,08,54,6.40
2019,02,10,08,55,6.40
2019,02,10,08,56,3.20
2019,02,10,08,57,1.60
2019,02,10,08,58,3.20
2019,02,10,08,59,4.80
2019,02,10,09,00,6.40
2019,02,10,09,01,4.80
2019,02,10,09,02,4.80
2019,02,10,09,03,4.80
2019,02,10,09,04,4.80
2019,02,10,09,05,4.80
2019,02,10,09,06,4.80
2019,02,10,09,07,6.40
2019,02,10,09,08,6.40
2019,02,10,09,09,8.10
2019,02,10,09,10,6.40
2019,02,10,09,11,6.40
2019,02,10,09,12,4.80
2019,02,10,09,13,6.40
2019,02,10,09,14,8.10
2019,02,10,09,15,8.10
2019,02,10,09,16,8.10
2019,02,10,09,17,8.10
2019,02,10,09,18,8.10
2019,02,10,09,19,8.10
2019,02,10,09,20,6.40
2019,02,10,09,21,6.40
2019,02,10,09,22,11.30
2019,02,10,09,23,9.60
2019,02,10,09,24,6.40
2019,02,10,09,25,8.10
2019,02,10,09,26,8.10
2019,02,10,09,27,8.10
2019,02,10,09,28,6.40
2019,02,10,09,29,6.40
2019,02,10,09,30,6.40
2019,02,10,09,31,6.40
2019,02,10,09,32,6.40
2019,02,10,09,33,6.40
2019,02,10,09,34,8.10
2019,02,10,09,35,6.40
2019,02,10,09,36,6.40
2019,02,10,09,37,3.20
2019,02,10,09,38,3.20
2019,02,10,09,39,3.20
2019,02,10,09,40,1.60
2019,02,10,09,41,1.60
2019,02,10,09,45,1.60
2019,02,10,09,46,3.20
2019,02,10,09,47,6.40
2019,02,10,09,48,4.80
2019,02,10,09,49,1.60
2019,02,10,09,54,6.40
2019,02,10,09,55,8.10
2019,02,10,09,56,4.80
2019,02,10,09,57,6.40
2019,02,10,09,58,6.40
2019,02,10,09,59,4.80
2019,02,10,10,00,1.60
2019,02,10,10,01,6.40
2019,02,10,10,02,8.10
2019,02,10,10,03,6.40
2019,02,10,10,04,4.80
2019,02,10,10,05,6.40
2019,02,10,10,06,4.80
2019,02,10,10,07,3.20
2019,02,10,10,08,9.60
2019,02,10,10,09,8.10
2019,02,10,10,10,6.40
2019,02,10,10,11,3.20
2019,02,10,10,12,4.80
2019,02,10,10,13,8.10
2019,02,10,10,14,6.40
2019,02,10,10,15,9.60
2019,02,10,10,16,6.40
2019,02,10,10,17,9.60
2019,02,10,10,18,6.40
2019,02,10,10,19,4.80
2019,02,10,10,20,8.10
2019,02,10,10,21,4.80
2019,02,10,10,22,9.60
2019,02,10,10,23,11.30
2019,02,10,10,24,9.60
2019,02,10,10,25,11.30
2019,02,10,10,26,6.40
2019,02,10,10,27,3.20
2019,02,10,10,28,8.10
2019,02,10,10,29,6.40
2019,02,10,10,30,6.40
2019,02,10,10,31,3.20
2019,02,10,10,32,4.80
2019,02,10,10,33,8.10
2019,02,10,10,34,8.10
2019,02,10,10,35,9.60
2019,02,10,10,36,9.60
2019,02,10,10,37,14.50
2019,02,10,10,38,9.60
2019,02,10,10,39,17.70
2019,02,10,10,40,12.90
2019,02,10,10,41,8.10
2019,02,10,10,42,6.40
2019,02,10,10,43,9.60
2019,02,10,10,44,8.10
2019,02,10,10,45,8.10
2019,02,10,10,46,8.10
2019,02,10,10,47,6.40
2019,02,10,10,48,6.40
2019,02,10,10,49,8.10
2019,02,10,10,50,9.60
2019,02,10,10,51,4.80
2019,02,10,10,52,6.40
2019,02,10,10,53,6.40
2019,02,10,10,54,6.40
2019,02,10,10,55,8.10
2019,02,10,10,56,6.40
2019,02,10,10,57,8.10
2019,02,10,10,58,4.80
2019,02,10,10,59,3.20
2019,02,10,11,00,9.60
2019,02,10,11,01,6.40
2019,02,10,11,02,9.60
2019,02,10,11,03,9.60
2019,02,10,11,04,9.60
2019,02,10,11,05,14.50
2019,02,10,11,06,11.30
2019,02,10,11,07,9.60
2019,02,10,11,08,9.60
2019,02,10,11,09,14.50
2019,02,10,11,10,14.50
2019,02,10,11,11,16.10
2019,02,10,11,12,16.10
2019,02,10,11,13,19.30
2019,02,10,11,14,14.50
2019,02,10,11,15,16.10
2019,02,10,11,16,12.90
2019,02,10,11,17,11.30
2019,02,10,11,18,17.70
2019,02,10,11,19,17.70
2019,02,10,11,20,16.10
2019,02,10,11,21,17.70
2019,02,10,11,22,19.30
2019,02,10,11,23,24.20
2019,02,10,11,24,17.70
2019,02,10,11,25,17.70
2019,02,10,11,26,20.90
2019,02,10,11,27,17.70
2019,02,10,11,28,11.30
2019,02,10,11,29,14.50
2019,02,10,11,30,17.70
2019,02,10,11,31,14.50
2019,02,10,11,32,17.70
2019,02,10,11,33,22.50
2019,02,10,11,34,16.10
2019,02,10,11,35,20.90
2019,02,10,11,36,16.10
2019,02,10,11,37,16.10
2019,02,10,11,38,16.10
2019,02,10,11,39,16.10
2019,02,10,11,40,16.10
2019,02,10,11,41,17.70
2019,02,10,11,42,20.90
2019,02,10,11,43,17.70
2019,02,10,11,44,17.70
2019,02,10,11,45,24.20
2019,02,10,11,46,20.90
2019,02,10,11,47,24.20
2019,02,10,11,48,19.30
2019,02,10,11,49,19.30
2019,02,10,11,50,14.50
2019,02,10,11,51,22.50
2019,02,10,11,52,20.90
2019,02,10,11,53,20.90
2019,02,10,11,54,17.70
2019,02,10,11,55,22.50
2019,02,10,11,56,19.30
2019,02,10,11,57,20.90
2019,02,10,11,58,16.10
2019,02,10,11,59,22.50
2019,02,10,12,00,20.90
2019,02,10,12,01,17.70
2019,02,10,12,02,22.50
2019,02,10,12,03,24.20
2019,02,10,12,04,20.90
2019,02,10,12,05,22.50
2019,02,10,12,06,19.30
2019,02,10,12,07,19.30
2019,02,10,12,08,14.50
2019,02,10,12,09,24.20
2019,02,10,12,10,17.70
2019,02,10,12,11,20.90
2019,02,10,12,12,14.50
2019,02,10,12,13,24.20
2019,02,10,12,14,24.20
2019,02,10,12,15,20.90
2019,02,10,12,16,24.20
2019,02,10,12,17,19.30
2019,02,10,12,18,22.50
2019,02,10,12,19,19.30
2019,02,10,12,20,16.10
2019,02,10,12,21,25.70
2019,02,10,12,22,22.50
2019,02,10,12,23,20.90
2019,02,10,12,24,19.30
2019,02,10,12,25,11.30
2019,02,10,12,26,20.90
2019,02,10,12,27,25.70
2019,02,10,12,28,19.30
2019,02,10,12,29,17.70
2019,02,10,12,30,19.30
2019,02,10,12,31,20.90
2019,02,10,12,32,25.70
2019,02,10,12,33,12.90
2019,02,10,12,34,11.30
2019,02,10,12,35,11.30
2019,02,10,12,36,16.10
2019,02,10,12,37,19.30
2019,02,10,12,38,17.70
2019,02,10,12,39,9.60
2019,02,10,12,40,19.30
2019,02,10,12,41,12.90
2019,02,10,12,42,16.10
2019,02,10,12,43,16.10
2019,02,10,12,44,11.30
2019,02,10,12,45,16.10
2019,02,10,12,46,17.70
2019,02,10,12,47,14.50
2019,02,10,12,48,16.10
2019,02,10,12,49,12.90
2019,02,10,12,50,16.10
2019,02,10,12,51,17.70
2019,02,10,12,52,20.90
2019,02,10,12,53,17.70
2019,02,10,12,54,12.90
2019,02,10,12,55,16.10
2019,02,10,12,56,19.30
2019,02,10,12,57,22.50
2019,02,10,12,58,24.20
2019,02,10,12,59,22.50
2019,02,10,13,00,19.30
2019,02,10,13,01,30.60
2019,02,10,13,02,19.30
2019,02,10,13,03,22.50
2019,02,10,13,04,22.50
2019,02,10,13,05,14.50
2019,02,10,13,06,16.10
2019,02,10,13,07,14.50
2019,02,10,13,08,16.10
2019,02,10,13,09,20.90
2019,02,10,13,10,19.30
2019,02,10,13,11,20.90
2019,02,10,13,12,19.30
2019,02,10,13,13,12.90
2019,02,10,13,14,19.30
2019,02,10,13,15,16.10
2019,02,10,13,16,20.90
2019,02,10,13,17,22.50
2019,02,10,13,18,22.50
2019,02,10,13,19,19.30
2019,02,10,13,20,20.90
2019,02,10,13,21,22.50
2019,02,10,13,22,27.40
2019,02,10,13,23,19.30
2019,02,10,13,24,29.00
2019,02,10,13,25,19.30
2019,02,10,13,26,17.70
2019,02,10,13,27,20.90
2019,02,10,13,28,19.30
2019,02,10,13,29,19.30
2019,02,10,13,30,19.30
2019,02,10,13,31,25.70
2019,02,10,13,32,20.90
2019,02,10,13,33,24.20
2019,02,10,13,34,25.70
2019,02,10,13,35,19.30
2019,02,10,13,36,19.30
2019,02,10,13,37,19.30
2019,02,10,13,38,11.30
2019,02,10,13,39,25.70
2019,02,10,13,40,35.40
2019,02,10,13,41,22.50
2019,02,10,13,42,22.50
2019,02,10,13,43,25.70
2019,02,10,13,44,22.50
2019,02,10,13,45,35.40
2019,02,10,13,46,24.20
2019,02,10,13,47,29.00
2019,02,10,13,48,25.70
2019,02,10,13,49,32.20
2019,02,10,13,50,25.70
2019,02,10,13,51,27.40
2019,02,10,13,52,22.50
2019,02,10,13,53,19.30
2019,02,10,13,54,29.00
2019,02,10,13,55,14.50
2019,02,10,13,56,14.50
2019,02,10,13,57,25.70
2019,02,10,13,58,14.50
2019,02,10,13,59,33.80
2019,02,10,14,00,20.90
2019,02,10,14,01,25.70
2019,02,10,14,02,29.00
2019,02,10,14,03,33.80
2019,02,10,14,04,41.80
2019,02,10,14,05,38.60
2019,02,10,14,06,32.20
2019,02,10,14,07,32.20
2019,02,10,14,08,24.20
2019,02,10,14,09,25.70
2019,02,10,14,10,33.80
2019,02,10,14,11,33.80
2019,02,10,14,12,27.40
2019,02,10,14,13,30.60
2019,02,10,14,14,33.80
2019,02,10,14,15,22.50
2019,02,10,14,16,33.80
2019,02,10,14,17,27.40
2019,02,10,14,18,35.40
2019,02,10,14,19,14.50
2019,02,10,14,20,33.80
2019,02,10,14,21,29.00
2019,02,10,14,22,32.20
2019,02,10,14,23,25.70
2019,02,10,14,24,22.50
2019,02,10,14,25,25.70
2019,02,10,14,26,37.00
2019,02,10,14,27,37.00
2019,02,10,14,28,22.50
2019,02,10,14,29,17.70
2019,02,10,14,30,29.00
2019,02,10,14,31,29.00
2019,02,10,14,32,35.40
2019,02,10,14,33,33.80
2019,02,10,14,34,20.90
2019,02,10,14,35,19.30
2019,02,10,14,36,35.40
2019,02,10,14,37,30.60
2019,02,10,14,38,43.50
2019,02,10,14,39,19.30
2019,02,10,14,40,29.00
2019,02,10,14,41,24.20
2019,02,10,14,42,25.70
2019,02,10,14,43,27.40
2019,02,10,14,44,20.90
2019,02,10,14,45,19.30
2019,02,10,14,46,25.70
2019,02,10,14,47,32.20
2019,02,10,14,48,22.50
2019,02,10,14,49,27.40
2019,02,10,14,50,35.40
2019,02,10,14,51,29.00
2019,02,10,14,52,35.40
2019,02,10,14,53,43.50
2019,02,10,14,54,29.00
2019,02,10,14,55,17.70
2019,02,10,14,56,20.90
2019,02,10,14,57,19.30
2019,02,10,14,58,22.50
2019,02,10,14,59,22.50
2019,02,10,15,00,22.50
2019,02,10,15,01,37.00
2019,02,10,15,02,37.00
2019,02,10,15,03,37.00
2019,02,10,15,04,22.50
2019,02,10,15,05,25.70
2019,02,10,15,06,22.50
2019,02,10,15,07,27.40
2019,02,10,15,08,27.40
2019,02,10,15,09,30.60
2019,02,10,15,10,33.80
2019,02,10,15,11,29.00
2019,02,10,15,12,22.50
2019,02,10,15,13,30.60
2019,02,10,15,14,27.40
2019,02,10,15,15,20.90
2019,02,10,15,16,17.70
2019,02,10,15,17,25.70
2019,02,10,15,18,19.30
2019,02,10,15,19,33.80
2019,02,10,15,20,29.00
2019,02,10,15,21,27.40
2019,02,10,15,22,37.00
2019,02,10,15,23,27.40
2019,02,10,15,24,24.20
2019,02,10,15,25,32.20
2019,02,10,15,26,29.00
2019,02,10,15,27,24.20
2019,02,10,15,28,20.90
2019,02,10,15,29,16.10
2019,02,10,15,30,17.70
2019,02,10,15,31,17.70
2019,02,10,15,32,24.20
2019,02,10,15,33,24.20
2019,02,10,15,34,24.20
2019,02,10,15,35,30.60
2019,02,10,15,36,27.40
2019,02,10,15,37,27.40
2019,02,10,15,38,20.90
2019,02,10,15,39,25.70
2019,02,10,15,40,25.70
2019,02,10,15,41,25.70
2019,02,10,15,42,30.60
2019,02,10,15,43,22.50
2019,02,10,15,44,20.90
2019,02,10,15,45,16.10
2019,02,10,15,46,32.20
2019,02,10,15,47,25.70
2019,02,10,15,48,14.50
2019,02,10,15,49,27.40
2019,02,10,15,50,20.90
2019,02,10,15,51,19.30
2019,02,10,15,52,37.00
2019,02,10,15,53,37.00
2019,02,10,15,54,22.50
2019,02,10,15,55,20.90
2019,02,10,15,56,19.30
2019,02,10,15,57,30.60
2019,02,10,15,58,40.20
2019,02,10,15,59,29.00
2019,02,10,16,00,25.70
2019,02,10,16,01,24.20
2019,02,10,16,02,30.60
2019,02,10,16,03,25.70
2019,02,10,16,04,17.70
2019,02,10,16,05,24.20
2019,02,10,16,06,33.80
2019,02,10,16,07,35.40
2019,02,10,16,08,33.80
2019,02,10,16,09,37.00
2019,02,10,16,10,20.90
2019,02,10,16,11,32.20
2019,02,10,16,12,20.90
2019,02,10,16,13,27.40
2019,02,10,16,14,32.20
2019,02,10,16,15,24.20
2019,02,10,16,16,40.20
2019,02,10,16,17,24.20
2019,02,10,16,18,30.60
2019,02,10,16,19,30.60
2019,02,10,16,20,25.70
2019,02,10,16,21,22.50
2019,02,10,16,22,22.50
2019,02,10,16,23,51.50
2019,02,10,16,24,51.50
2019,02,10,16,25,22.50
2019,02,10,16,26,25.70
2019,02,10,16,27,33.80
2019,02,10,16,28,29.00
2019,02,10,16,29,24.20
2019,02,10,16,30,17.70
2019,02,10,16,31,27.40
2019,02,10,16,32,30.60
2019,02,10,16,33,19.30
2019,02,10,16,34,19.30
2019,02,10,16,35,17.70
2019,02,10,16,36,17.70
2019,02,10,16,37,9.60
2019,02,10,16,38,22.50
2019,02,10,16,39,22.50
2019,02,10,16,40,16.10
2019,02,10,16,41,19.30
2019,02,10,16,42,19.30
2019,02,10,16,43,29.00
2019,02,10,16,44,27.40
2019,02,10,16,45,22.50
2019,02,10,16,46,27.40
2019,02,10,16,47,19.30
2019,02,10,16,48,17.70
2019,02,10,16,49,29.00
2019,02,10,16,50,25.70
2019,02,10,16,51,25.70
2019,02,10,16,52,25.70
2019,02,10,16,53,20.90
2019,02,10,16,54,17.70
2019,02,10,16,55,17.70
2019,02,10,16,56,16.10
2019,02,10,16,57,27.40
2019,02,10,16,58,24.20
2019,02,10,16,59,22.50
2019,02,10,17,00,14.50
2019,02,10,17,01,17.70
2019,02,10,17,02,19.30
2019,02,10,17,03,11.30
2019,02,10,17,04,16.10
2019,02,10,17,05,16.10
2019,02,10,17,06,16.10
2019,02,10,17,07,22.50
2019,02,10,17,08,9.60
2019,02,10,17,09,11.30
2019,02,10,17,10,8.10
2019,02,10,17,11,29.00
2019,02,10,17,12,11.30
2019,02,10,17,13,16.10
2019,02,10,17,14,14.50
2019,02,10,17,15,8.10
2019,02,10,17,16,14.50
2019,02,10,17,17,14.50
2019,02,10,17,18,12.90
2019,02,10,17,19,12.90
2019,02,10,17,20,17.70
2019,02,10,17,21,11.30
2019,02,10,17,22,9.60
2019,02,10,17,23,20.90
2019,02,10,17,24,20.90
2019,02,10,17,25,12.90
2019,02,10,17,26,6.40
2019,02,10,17,27,6.40
2019,02,10,17,28,9.60
2019,02,10,17,29,8.10
2019,02,10,17,30,6.40
2019,02,10,17,31,14.50
2019,02,10,17,32,14.50
2019,02,10,17,33,17.70
2019,02,10,17,34,8.10
2019,02,10,17,35,4.80
2019,02,10,17,36,8.10
2019,02,10,17,37,6.40
2019,02,10,17,38,11.30
2019,02,10,17,39,12.90
2019,02,10,17,40,11.30
2019,02,10,17,41,4.80
2019,02,10,17,42,9.60
2019,02,10,17,43,8.10
2019,02,10,17,44,11.30
2019,02,10,17,45,9.60
2019,02,10,17,46,9.60
2019,02,10,17,47,6.40
2019,02,10,17,48,17.70
2019,02,10,17,49,17.70
2019,02,10,17,50,9.60
2019,02,10,17,51,11.30